Weather History for Suffolk, VA

Change the Weather History Date:

Monday, November 5, 2012

  Actual Average Record
Temperature  
Mean Temperature 42 °F -  
Max Temperature 50 °F 62 °F 82 °F (1948)
Min Temperature 33 °F 44 °F 27 °F (1952)
Degree Days  
Heating Degree Days 24    
Moisture  
Dew Point 36 °F    
Average Humidity 80    
Maximum Humidity 100    
Minimum Humidity 50    
Precipitation  
Precipitation 0.00 in - - ()
Sea Level Pressure  
Sea Level Pressure 30.08 in    
Wind  
Wind Speed 3 mph (North)    
Max Wind Speed 12 mph    
Max Gust Speed 16 mph    
Visibility 10 miles    
Events      
Averages and records for this station are not official NWS values.
T = Trace of Precipitation, MM = Missing Value Source: NWS Daily Summary

Daily Weather History Graph

Daily Weather History Graph

Search for Another Location

Airport:

Trip Planner

Search our weather history database for the weather conditions in past years. The results will help you decide how hot, cold, wet, or windy it might be!

Date:

Astronomy

Nov. 05, 2012 Rise Set
Actual Time 6:34 AM EST 5:05 PM EST
Civil Twilight 6:07 AM EST 5:32 PM EST
Nautical Twilight 5:36 AM EST 6:02 PM EST
Astronomical Twilight 5:06 AM EST 6:33 PM EST
Moon 10:40 PM EST (11/5) 11:52 AM EST (11/5)
Length of Visible Light 11h 24m
Length of Day
10h 30m
Waning Gibbous, 63% of the Moon is Illuminated
Nov 5
Waning Gibbous
Nov 6
Last Quarter
Nov 13
New
Nov 20
First Quarter
Nov 28
Full

Hourly Weather History & Observations

Time (EST) Temp. Windchill Dew Point Humidity Pressure Visibility Wind Dir Wind Speed Gust Speed Precip Events Conditions
12:15 AM 42.8 °F - 41.0 °F 93% 30.03 in 10.0 mi Calm Calm - N/A   Overcast
12:35 AM 42.8 °F - 41.0 °F 93% 30.02 in 10.0 mi Calm Calm - N/A   Mostly Cloudy
12:55 AM 42.8 °F 40.1 °F 41.0 °F 93% 30.03 in 10.0 mi NW 4.6 mph - N/A   Mostly Cloudy
1:15 AM 42.8 °F 40.1 °F 39.2 °F 87% 30.02 in 10.0 mi NNW 4.6 mph - N/A   Scattered Clouds
1:35 AM 42.8 °F 40.1 °F 39.2 °F 87% 30.02 in 10.0 mi NNW 4.6 mph - N/A   Clear
1:55 AM 42.8 °F 41.1 °F 39.2 °F 87% 30.02 in 10.0 mi NNW 3.5 mph - N/A   Clear
2:15 AM 42.8 °F 41.1 °F 39.2 °F 87% 30.02 in 10.0 mi North 3.5 mph - N/A   Clear
2:35 AM 42.8 °F 41.1 °F 39.2 °F 87% 30.02 in 10.0 mi North 3.5 mph - N/A   Clear
2:55 AM 42.8 °F - 39.2 °F 87% 30.02 in 10.0 mi Calm Calm - N/A   Clear
3:15 AM 42.8 °F - 39.2 °F 87% 30.02 in 10.0 mi Calm Calm - N/A   Clear
3:35 AM 42.8 °F - 39.2 °F 87% 30.02 in 10.0 mi Calm Calm - N/A   Scattered Clouds
3:55 AM 41.0 °F 39.0 °F 39.2 °F 93% 30.04 in 10.0 mi NW 3.5 mph - N/A   Clear
4:15 AM 41.0 °F 39.0 °F 39.2 °F 93% 30.04 in 10.0 mi NNW 3.5 mph - N/A   Clear
4:35 AM 41.0 °F - 39.2 °F 93% 30.05 in 10.0 mi Calm Calm - N/A   Clear
4:55 AM 39.2 °F - 37.4 °F 93% 30.05 in 10.0 mi Calm Calm - N/A   Clear
5:15 AM 39.2 °F - 37.4 °F 93% 30.05 in 10.0 mi Calm Calm - N/A   Clear
5:35 AM 37.4 °F 34.9 °F 37.4 °F 100% 30.06 in 10.0 mi NW 3.5 mph - N/A   Clear
5:55 AM 37.4 °F - 37.4 °F 100% 30.06 in 10.0 mi Calm Calm - N/A   Clear
6:15 AM 37.4 °F 34.9 °F 35.6 °F 93% 30.06 in 10.0 mi NNW 3.5 mph - N/A   Clear
6:35 AM 37.4 °F - 35.6 °F 93% 30.06 in 10.0 mi Calm Calm - N/A   Clear
6:55 AM 37.4 °F 34.9 °F 35.6 °F 93% 30.07 in 10.0 mi NNW 3.5 mph - N/A   Clear
7:15 AM 37.4 °F - 35.6 °F 93% 30.08 in 10.0 mi Calm Calm - N/A   Clear
7:35 AM 37.4 °F 33.8 °F 35.6 °F 93% 30.09 in 10.0 mi NW 4.6 mph - N/A   Clear
7:55 AM 39.2 °F 37.0 °F 37.4 °F 93% 30.09 in 10.0 mi NNW 3.5 mph - N/A   Clear
8:15 AM 42.8 °F 38.6 °F 37.4 °F 81% 30.09 in 10.0 mi North 6.9 mph - N/A   Clear
8:35 AM 42.8 °F 38.0 °F 35.6 °F 76% 30.10 in 10.0 mi NNW 8.1 mph - N/A   Clear
8:55 AM 44.6 °F 40.2 °F 35.6 °F 71% 30.11 in 10.0 mi NNW 8.1 mph - N/A   Clear
9:15 AM 44.6 °F 39.7 °F 35.6 °F 71% 30.11 in 10.0 mi North 9.2 mph - N/A   Clear
9:35 AM 46.4 °F 42.4 °F 35.6 °F 66% 30.10 in 10.0 mi North 8.1 mph - N/A   Clear
9:55 AM 46.4 °F 41.9 °F 35.6 °F 66% 30.10 in 10.0 mi North 9.2 mph - N/A   Clear
10:15 AM 46.4 °F 43.5 °F 33.8 °F 62% 30.10 in 10.0 mi NNW 5.8 mph - N/A   Clear
10:35 AM 46.4 °F 42.4 °F 33.8 °F 62% 30.10 in 10.0 mi NNW 8.1 mph - N/A   Clear
10:55 AM 48.2 °F - 33.8 °F 58% 30.10 in 10.0 mi NNW 9.2 mph - N/A   Clear
11:15 AM 48.2 °F - 33.8 °F 58% 30.09 in 10.0 mi NW 10.4 mph - N/A   Clear
11:35 AM 48.2 °F - 33.8 °F 58% 30.08 in 10.0 mi North 11.5 mph - N/A   Clear
11:55 AM 48.2 °F - 33.8 °F 58% 30.08 in 10.0 mi NW 10.4 mph - N/A   Clear
12:15 PM 50.0 °F - 32.0 °F 50% 30.07 in 10.0 mi NW 8.1 mph - N/A   Clear
12:35 PM 50.0 °F - 33.8 °F 54% 30.06 in 10.0 mi NNE 8.1 mph - N/A   Clear
12:55 PM 50.0 °F - 33.8 °F 54% 30.06 in 10.0 mi NNE 5.8 mph - N/A   Clear
1:15 PM 50.0 °F - 33.8 °F 54% 30.06 in 10.0 mi North 4.6 mph - N/A   Clear
1:35 PM 50.0 °F - 33.8 °F 54% 30.06 in 10.0 mi North 9.2 mph - N/A   Clear
1:55 PM 50.0 °F - 33.8 °F 54% 30.06 in 10.0 mi North 6.9 mph - N/A   Clear
2:15 PM 50.0 °F - 33.8 °F 54% 30.06 in 10.0 mi NNE 6.9 mph 16.1 mph N/A   Clear
2:35 PM 50.0 °F - 32.0 °F 50% 30.06 in 10.0 mi NNE 5.8 mph - N/A   Clear
2:55 PM 50.0 °F - 33.8 °F 54% 30.06 in 10.0 mi NNE 6.9 mph - N/A   Clear
3:15 PM 50.0 °F - 32.0 °F 50% 30.06 in 10.0 mi North 6.9 mph - N/A   Clear
3:35 PM 50.0 °F - 33.8 °F 54% 30.06 in 10.0 mi North 4.6 mph - N/A   Clear
3:55 PM 50.0 °F - 33.8 °F 54% 30.07 in 10.0 mi North 3.5 mph - N/A   Clear
4:15 PM 48.2 °F - 33.8 °F 58% 30.07 in 4.0 mi NE 5.8 mph - N/A   Haze
4:35 PM 48.2 °F - 33.8 °F 58% 30.07 in 10.0 mi NNE 3.5 mph - N/A   Clear
4:55 PM 46.4 °F 45.2 °F 33.8 °F 62% 30.08 in 10.0 mi NNE 3.5 mph - N/A   Clear
5:15 PM 44.6 °F - 35.6 °F 71% 30.08 in 10.0 mi Calm Calm - N/A   Clear
5:35 PM 42.8 °F - 35.6 °F 76% 30.08 in 10.0 mi Calm Calm - N/A   Clear
5:55 PM 41.0 °F - 35.6 °F 81% 30.09 in 10.0 mi Calm Calm - N/A   Clear
6:15 PM 39.2 °F - 35.6 °F 87% 30.10 in 10.0 mi Calm Calm - N/A   Clear
6:35 PM 39.2 °F - 35.6 °F 87% 30.11 in 10.0 mi Calm Calm - N/A   Clear
6:55 PM 37.4 °F - 35.6 °F 93% 30.11 in 10.0 mi Calm Calm - N/A   Clear
7:15 PM 37.4 °F - 35.6 °F 93% 30.12 in 10.0 mi Calm Calm - N/A   Clear
7:35 PM 35.6 °F - 35.6 °F 100% 30.12 in 10.0 mi Calm Calm - N/A   Clear
7:55 PM 35.6 °F - 35.6 °F 100% 30.13 in 10.0 mi Calm Calm - N/A   Clear
8:15 PM 35.6 °F - 35.6 °F 100% 30.13 in 10.0 mi Calm Calm - N/A   Clear
8:35 PM 35.6 °F - 33.8 °F 93% 30.14 in 7.0 mi Calm Calm - N/A   Clear
8:55 PM 35.6 °F - 33.8 °F 93% 30.14 in 7.0 mi Calm Calm - N/A   Clear
9:15 PM 35.6 °F - 33.8 °F 93% 30.15 in 10.0 mi Calm Calm - N/A   Clear
9:35 PM 33.8 °F - 33.8 °F 100% 30.15 in 5.0 mi Calm Calm - N/A   Clear
9:55 PM 33.8 °F - 33.8 °F 100% 30.15 in 5.0 mi Calm Calm - N/A   Clear
10:15 PM 33.8 °F - 33.8 °F 100% 30.15 in 5.0 mi Calm Calm - N/A   Clear
10:35 PM 33.8 °F - 33.8 °F 100% 30.14 in 7.0 mi Calm Calm - N/A   Clear
10:55 PM 33.8 °F - 33.8 °F 100% 30.15 in 7.0 mi Calm Calm - N/A   Clear
11:15 PM 33.8 °F - 33.8 °F 100% 30.15 in 10.0 mi Calm Calm - N/A   Clear
11:35 PM 33.8 °F - 32.0 °F 93% 30.14 in 7.0 mi Calm Calm - N/A   Clear
11:55 PM 33.8 °F - 33.8 °F 100% 30.14 in 7.0 mi Calm Calm - N/A   Clear